Effective Sunday, March 17, 2024, the National Weather Service National Data Buoy Center will discontinue its Dial-A-Buoy Interactive Voice Response system. For more information, see Service Change Notice 24-06 (PDF).

Station RPRN6 - Rochester Coast Guard, NY Image indicating link to RSS feed of recent meteorological observations for station RPRN6


Conditions at RPRN6 as of
(11:00 am EST)
1600 GMT on 03/02/2024:
     

Click on the graph icon in the table below to see a time series plot of the last five days of that observation.

5-day plot - Wind Direction Wind Direction (WDIR): S ( 170 deg true )
5-day plot - Wind Speed Wind Speed (WSPD): 8.0 kts
5-day plot - Wind Gust Wind Gust (GST): 11.1 kts
5-day plot - Atmospheric Pressure Atmospheric Pressure (PRES):30.23 in
5-day plot - Pressure Tendency Pressure Tendency (PTDY):-0.01 in ( Falling )
5-day plot - Air Temperature Air Temperature (ATMP): 43.5 °F
5-day plot - Wind Chill Wind Chill (CHILL): 38.3 °F
5-day plot -  Wind Speed, Wind Gust and Atmospheric Pressure Combined plot of Wind Speed, Gust, and Air Pressure
Previous observations
TIME
(EST)
5-day plot - Wind Direction
WDIR
 
5-day plot - Wind Speed
WSPD
kts
5-day plot - Wind Gust
GST
kts
5-day plot - Wave Height
WVHT
ft
5-day plot - Dominant Wave Period
DPD
sec
5-day plot - Average Wave Period
APD
sec
5-day plot - Mean Wave Direction
MWD
 
5-day plot - Atmospheric Pressure
PRES
in
5-day plot - Pressure Tendency
PTDY
in
5-day plot - Air Temperature
ATMP
°F
5-day plot - Water Temperature
WTMP
°F
5-day plot - Dew Point
DEWP
°F
5-day plot - Salinity
SAL
psu
5-day plot - Visibility
VIS
nmi
5-day plot - Tide (above MLLW)
TIDE
ft
2024-03-02 10:50 am S 8.0 9.9----30.23- 43.3-----
2024-03-02 10:40 am S 8.9 11.1----30.24- 43.2-----
2024-03-02 10:30 am S 8.0 12.0----30.24- 43.0-----
2024-03-02 10:20 am S 9.9 12.0----30.23- 43.0-----
2024-03-02 10:10 am S 8.9 12.0----30.24- 42.8-----
2024-03-02 10:00 am S 8.9 11.1----30.24+0.00 42.6-----
2024-03-02 09:50 am S 8.0 12.0----30.24- 42.6-----
2024-03-02 09:40 am S 8.9 11.1----30.24- 42.8-----
2024-03-02 09:30 am S 9.9 13.0----30.24- 42.8-----
2024-03-02 09:20 am S 8.9 13.0----30.24- 42.8-----
2024-03-02 09:10 am S 8.9 12.0----30.24- 42.8-----
2024-03-02 09:00 am S 9.9 13.0----30.24+0.00 42.6-----
2024-03-02 08:50 am S 8.9 12.0----30.24- 42.6-----
2024-03-02 08:40 am S 11.1 13.0----30.24- 42.4-----
2024-03-02 08:30 am S 9.9 14.0----30.24- 42.4-----
2024-03-02 08:20 am S 8.9 13.0----30.24- 42.3-----
2024-03-02 08:10 am S 9.9 12.0----30.24- 41.9-----
2024-03-02 08:00 am S 8.9 11.1----30.24-0.01 41.5-----
2024-03-02 07:50 am S 8.0 11.1----30.24- 41.4-----
2024-03-02 07:40 am S 7.0 8.9----30.25- 41.0-----
2024-03-02 07:30 am S 8.0 11.1----30.24- 41.0-----
2024-03-02 07:20 am S 8.9 12.0----30.24- 40.8-----
2024-03-02 07:10 am S 11.1 14.0----30.24- 40.6-----
2024-03-02 07:00 am S 9.9 13.0----30.24-0.02 40.3-----
2024-03-02 06:50 am S 9.9 13.0----30.24- 40.5-----
2024-03-02 06:40 am S 9.9 12.0----30.24- 40.1-----
2024-03-02 06:30 am S 8.0 11.1----30.24- 39.7-----
2024-03-02 06:20 am S 9.9 11.1----30.24- 39.6-----
2024-03-02 06:10 am S 8.9 9.9----30.24- 39.4-----
2024-03-02 06:00 amSSE 6.0 8.9----30.24-0.03 39.2-----
2024-03-02 05:50 amSSE 6.0 8.0----30.24- 39.4-----
2024-03-02 05:40 amSSE 6.0 7.0----30.24- 39.4-----
2024-03-02 05:30 amSSE 5.1 8.0----30.25- 39.6-----
2024-03-02 05:20 amSSE 6.0 8.0----30.25- 39.6-----
2024-03-02 05:10 amSSE 6.0 8.9----30.25- 39.6-----
2024-03-02 05:00 amSSE 6.0 7.0----30.25-0.02 39.4-----
2024-03-02 04:50 amSSE 5.1 7.0----30.25- 39.2-----
2024-03-02 04:40 am SE 6.0 8.0----30.25- 39.4-----
2024-03-02 04:30 am SE 5.1 7.0----30.26- 39.2-----
2024-03-02 04:20 am SE 6.0 8.9----30.26- 39.4-----
2024-03-02 04:10 amSSE 7.0 8.9----30.26- 39.4-----
2024-03-02 04:00 amSSE 6.0 11.1----30.26-0.02 39.6-----
2024-03-02 03:50 am S 8.0 13.0----30.26- 39.7-----
2024-03-02 03:40 am S 9.9 15.0----30.26- 39.9-----
2024-03-02 03:30 am S 8.0 15.0----30.26- 40.8-----
2024-03-02 03:20 am S 12.0 19.0----30.26- 41.7-----
2024-03-02 03:10 am S 14.0 17.1----30.27- 41.9-----
2024-03-02 03:00 am S 13.0 18.1----30.27-0.02 42.1-----
2024-03-02 02:50 am S 15.0 19.0----30.27- 42.1-----
2024-03-02 02:40 am S 13.0 18.1----30.28- 41.5-----
2024-03-02 02:30 am S 13.0 19.0----30.28- 41.9-----
2024-03-02 02:20 am S 14.0 22.9----30.27- 42.6-----
2024-03-02 02:10 am S 18.1 25.1----30.27- 43.3-----
2024-03-02 02:00 am S 15.9 22.0----30.27-0.03 44.6-----
2024-03-02 01:50 am S 15.0 22.0----30.28- 45.3-----
2024-03-02 01:40 am S 13.0 17.1----30.27- 45.5-----
2024-03-02 01:30 am S 13.0 18.1----30.28- 45.0-----
2024-03-02 01:20 am S 12.0 15.9----30.28- 44.4-----
2024-03-02 01:10 am S 11.1 14.0----30.28- 43.7-----
2024-03-02 01:00 am S 12.0 14.0----30.28-0.03 43.5-----
2024-03-02 12:50 am S 9.9 14.0----30.28- 43.7-----
2024-03-02 12:40 am S 9.9 12.0----30.28- 43.9-----
2024-03-02 12:30 am S 8.9 11.1----30.28- 43.9-----
2024-03-02 12:20 am S 8.9 11.1----30.28- 44.1-----
2024-03-02 12:10 am S 8.9 12.0----30.28- 44.2-----
2024-03-02 12:00 am S 8.9 11.1----30.29-0.03 44.8-----
2024-03-01 11:50 pm S 8.0 11.1----30.29- 45.0-----
2024-03-01 11:40 pm S 9.9 12.0----30.29- 45.3-----
2024-03-01 11:30 pm S 8.0 12.0----30.30- 45.3-----
2024-03-01 11:20 pm S 8.9 15.0----30.30- 45.3-----
2024-03-01 11:10 pm S 8.0 15.0----30.30- 45.5-----
2024-03-01 11:00 pm S 11.1 19.0----30.30-0.02 45.5-----
2024-03-01 10:50 pm S 12.0 15.9----30.30- 45.7-----
2024-03-01 10:40 pm S 9.9 14.0----30.30- 45.5-----
2024-03-01 10:30 pm S 11.1 15.0----30.30- 45.5-----
2024-03-01 10:20 pm S 9.9 13.0----30.31- 45.5-----
2024-03-01 10:10 pm S 11.1 15.9----30.31- 45.5-----
2024-03-01 10:00 pm S 12.0 15.0----30.31-0.01 45.5-----
2024-03-01 09:50 pm S 9.9 14.0----30.31- 45.7-----
2024-03-01 09:40 pm S 9.9 15.0----30.31- 45.7-----
2024-03-01 09:30 pm S 11.1 13.0----30.32- 45.9-----
2024-03-01 09:20 pm S 9.9 14.0----30.32- 45.9-----
2024-03-01 09:10 pm S 8.9 14.0----30.32- 46.0-----
2024-03-01 09:00 pm S 9.9 13.0----30.32-0.01 46.2-----
2024-03-01 08:50 pm S 9.9 13.0----30.32- 46.4-----
2024-03-01 08:40 pm S 8.0 11.1----30.32- 46.6-----
2024-03-01 08:30 pm S 9.9 13.0----30.32- 46.9-----
2024-03-01 08:20 pm S 8.9 14.0----30.32- 46.9-----
2024-03-01 08:10 pm S 9.9 14.0----30.32- 47.3-----
2024-03-01 08:00 pm S 9.9 14.0----30.32-0.03 47.7-----
2024-03-01 07:50 pmSSE 12.0 15.0----30.32- 48.0-----
2024-03-01 07:40 pmSSE 8.9 14.0----30.31- 48.2-----
2024-03-01 07:30 pm S 12.0 17.1----30.32- 48.4-----
2024-03-01 07:20 pm S 11.1 14.0----30.31- 48.2-----
2024-03-01 07:10 pmSSE 9.9 12.0----30.31- 47.8-----
2024-03-01 07:00 pmSSE 8.0 8.9----30.32-0.05 47.3-----
2024-03-01 06:50 pmSSE 8.9 9.9----30.32- 48.0-----
2024-03-01 06:40 pm SE 8.9 9.9----30.32- 48.0-----
2024-03-01 06:30 pm SE 8.9 9.9----30.32- 47.5-----
2024-03-01 06:20 pmSSE 7.0 8.0----30.32- 45.5-----
2024-03-01 06:10 pm SE 6.0 7.0----30.33- 43.2-----
2024-03-01 06:00 pmSSE 5.1 5.1----30.33-0.06 40.3-----
2024-03-01 05:50 pm SE 5.1 9.9----30.34- 39.7-----
2024-03-01 05:40 pm E 8.0 11.1----30.34- 40.1-----
2024-03-01 05:30 pm E 11.1 13.0----30.34- 40.3-----
2024-03-01 05:20 pm E 9.9 12.0----30.34- 40.3-----
2024-03-01 05:10 pmENE 11.1 13.0----30.35- 40.8-----
2024-03-01 05:00 pm E 13.0 15.0----30.35-0.05 41.5-----
2024-03-01 04:50 pm E 11.1 13.0----30.35- 41.2-----
2024-03-01 04:40 pmENE 12.0 14.0----30.36- 41.5-----
2024-03-01 04:30 pm E 11.1 12.0----30.36- 40.8-----
2024-03-01 04:20 pm E 11.1 13.0----30.37- 40.6-----
2024-03-01 04:10 pmENE 11.1 12.0----30.37- 40.3-----
2024-03-01 04:00 pmENE 12.0 14.0----30.37-0.06 40.6-----
2024-03-01 03:50 pm E 12.0 14.0----30.38- 46.6-----
2024-03-01 03:40 pmSSE 8.9 14.0----30.38- 51.4-----
2024-03-01 03:30 pmSSE 5.1 7.0----30.38- 51.8-----
2024-03-01 03:20 pm S 8.0 12.0----30.39- 50.9-----
2024-03-01 03:10 pm S 8.0 8.9----30.39- 50.0-----
2024-03-01 03:00 pm SW 7.0 13.0----30.39-0.07 49.8-----
2024-03-01 02:50 pm S 8.9 13.0----30.40- 49.6-----
2024-03-01 02:40 pm S 11.1 15.0----30.39- 49.5-----
2024-03-01 02:30 pm SW 7.0 11.1----30.40- 49.6-----
2024-03-01 02:20 pmSSW 7.0 13.0----30.40- 49.8-----
2024-03-01 02:10 pmSSW 9.9 12.0----30.40- 49.3-----
2024-03-01 02:00 pm SW 8.9 11.1----30.40-0.08 48.9-----
2024-03-01 01:50 pm SW 8.9 13.0----30.40- 48.4-----
2024-03-01 01:40 pmSSW 8.0 15.0----30.41- 47.8-----
2024-03-01 01:30 pm SW 9.9 14.0----30.41- 47.7-----
2024-03-01 01:20 pmSSW 8.0 18.1----30.41- 47.1-----
2024-03-01 01:10 pm S 9.9 15.0----30.42- 46.8-----
2024-03-01 01:00 pmSSW 7.0 14.0----30.43-0.06 46.2-----
2024-03-01 12:50 pm S 8.9 15.0----30.44- 45.5-----
2024-03-01 12:40 pmSSW 8.0 14.0----30.44- 45.0-----
2024-03-01 12:30 pm S 12.0 15.0----30.44- 44.6-----
2024-03-01 12:20 pm S 9.9 15.0----30.45- 44.1-----
2024-03-01 12:10 pmSSW 7.0 12.0----30.45- 43.7-----
2024-03-01 12:00 pmSSW 11.1 14.0----30.46-0.04 43.2-----
2024-03-01 11:50 am S 8.9 15.0----30.46- 42.4-----